When you browse on this site, cookies collect data to enhance your experience and personalize the content and advertising you see.
Visit our Privacy Policy to learn more. By continuing to use the site, you agree to this use of cookies and data.
  • In Hungary
  • List of Countries
  • For 7 days
  • Water Temperature
  • Satellite Maps
  • Weather Map
  • News
  • Weather Widgets
  • user-avatar
    Login

    Hourly Weather Nish

    Today, 14 December, Friday

    Time Temperature Precipitation Wind Pressure Humidity
    00:00 0°C° 0.1 mm 1 mps 708 mmHg 68%
    01:00 0°C° 0 mm 1 mps 708 mmHg 75%
    02:00 0°C° 0.5 mm 1 mps 708 mmHg 80%
    03:00 0°C° 0.5 mm 1 mps 708 mmHg 85%
    04:00 0°C° 0.5 mm 1 mps 708 mmHg 91%
    05:00 0°C° 0.7 mm 1 mps 708 mmHg 92%
    06:00 0°C° 0.7 mm 1 mps 708 mmHg 93%
    07:00 0°C° 0 mm 1 mps 708 mmHg 94%
    08:00 0°C° 0.4 mm 1 mps 708 mmHg 92%
    09:00 +1°C° 0.4 mm 1 mps 708 mmHg 91%
    10:00 +1°C° 0.4 mm 1 mps 708 mmHg 90%
    11:00 +2°C° 0.5 mm 1 mps 708 mmHg 90%
    12:00 +1°C° 0.5 mm 2 mps 708 mmHg 90%
    13:00 +1°C° 0.5 mm 2 mps 707 mmHg 90%
    14:00 +1°C° 0.3 mm 2 mps 707 mmHg 91%
    15:00 +1°C° 0.3 mm 2 mps 707 mmHg 93%
    16:00 -1°C° 0.3 mm 2 mps 707 mmHg 94%
    17:00 -1°C° 0.2 mm 2 mps 707 mmHg 94%
    18:00 -1°C° 0.2 mm 2 mps 707 mmHg 94%
    19:00 -1°C° 0.2 mm 2 mps 707 mmHg 94%
    20:00 -1°C° 0.5 mm 2 mps 707 mmHg 94%
    21:00 -1°C° 0.5 mm 2 mps 707 mmHg 95%
    22:00 -1°C° 0.5 mm 2 mps 707 mmHg 95%
    23:00 -1°C° 0.4 mm 2 mps 707 mmHg 95%

    Tomorrow, 15 December, Saturday

    Time Temperature Precipitation Wind Pressure Humidity
    00:00 +1°C° 0.4 mm 1 mps 707 mmHg 95%
    01:00 +1°C° 0.4 mm 1 mps 707 mmHg 95%
    02:00 +1°C° 0.2 mm 1 mps 707 mmHg 95%
    03:00 +1°C° 0.2 mm 1 mps 706 mmHg 95%
    04:00 +1°C° 0.2 mm 1 mps 706 mmHg 95%
    05:00 +1°C° 0.1 mm 1 mps 706 mmHg 95%
    06:00 +1°C° 0.1 mm 1 mps 706 mmHg 95%
    07:00 +1°C° 0.1 mm 1 mps 706 mmHg 95%
    08:00 +2°C° 0.2 mm 1 mps 707 mmHg 95%
    09:00 +2°C° 0.2 mm 1 mps 707 mmHg 95%
    10:00 +3°C° 0.2 mm 1 mps 707 mmHg 95%
    11:00 +3°C° 0.4 mm 1 mps 707 mmHg 95%
    12:00 +3°C° 0.4 mm 1 mps 706 mmHg 95%
    13:00 +3°C° 0.4 mm 1 mps 706 mmHg 95%
    14:00 +3°C° 0.4 mm 1 mps 706 mmHg 95%
    15:00 +3°C° 0.4 mm 1 mps 706 mmHg 96%
    16:00 +2°C° 0.4 mm 1 mps 706 mmHg 96%
    17:00 +1°C° 0.4 mm 2 mps 706 mmHg 96%
    18:00 +1°C° 0.4 mm 2 mps 706 mmHg 96%
    19:00 +1°C° 0.4 mm 2 mps 706 mmHg 96%
    20:00 -1°C° 0.6 mm 2 mps 706 mmHg 96%
    21:00 -1°C° 0.6 mm 2 mps 706 mmHg 96%
    22:00 -1°C° 0.6 mm 2 mps 706 mmHg 96%
    23:00 -1°C° 1.3 mm 2 mps 706 mmHg 96%

    Day after tomorrow, 16 December, Sunday

    Time Temperature Precipitation Wind Pressure Humidity
    00:00 -1°C° 1.3 mm 2 mps 706 mmHg 96%
    01:00 -2°C° 1.3 mm 2 mps 706 mmHg 96%
    02:00 -2°C° 1.1 mm 2 mps 706 mmHg 96%
    03:00 -2°C° 1.1 mm 2 mps 706 mmHg 96%
    04:00 -2°C° 1.1 mm 3 mps 706 mmHg 96%
    05:00 -4°C° 1.3 mm 3 mps 706 mmHg 96%
    06:00 -4°C° 1.3 mm 3 mps 707 mmHg 96%
    07:00 -4°C° 1.3 mm 3 mps 707 mmHg 96%
    08:00 -4°C° 1.1 mm 3 mps 708 mmHg 95%
    09:00 -4°C° 1.1 mm 3 mps 708 mmHg 95%
    10:00 -4°C° 1.1 mm 3 mps 709 mmHg 95%
    11:00 -4°C° 0.3 mm 3 mps 709 mmHg 94%
    12:00 -3°C° 0.3 mm 2 mps 709 mmHg 93%
    13:00 -2°C° 0.3 mm 2 mps 709 mmHg 93%
    14:00 -3°C° 0 mm 2 mps 709 mmHg 93%
    15:00 -3°C° 0 mm 2 mps 710 mmHg 94%
    16:00 -3°C° 0 mm 2 mps 710 mmHg 95%
    17:00 -1°C° 0 mm 1 mps 710 mmHg 95%
    18:00 -2°C° 0 mm 1 mps 711 mmHg 96%
    19:00 -2°C° 0 mm 1 mps 711 mmHg 96%
    20:00 -2°C° 0 mm 1 mps 711 mmHg 96%
    21:00 -3°C° 0 mm 1 mps 711 mmHg 95%
    22:00 -4°C° 0 mm 0 mps 711 mmHg 94%
    23:00 -3°C° 0 mm 1 mps 711 mmHg 94%

    17 December, Monday

    Time Temperature Precipitation Wind Pressure Humidity
    00:00 -3°C° 0 mm 1 mps 711 mmHg 94%
    01:00 -3°C° 0 mm 1 mps 710 mmHg 94%
    02:00 -3°C° 0 mm 1 mps 710 mmHg 93%
    03:00 -3°C° 0 mm 1 mps 710 mmHg 93%
    04:00 -3°C° 0 mm 1 mps 709 mmHg 92%
    05:00 -2°C° 0 mm 1 mps 709 mmHg 92%
    06:00 -1°C° 0 mm 1 mps 709 mmHg 92%
    07:00 -1°C° 0 mm 1 mps 709 mmHg 92%
    08:00 0°C° 0 mm 1 mps 710 mmHg 93%
    09:00 +1°C° 0 mm 1 mps 710 mmHg 94%
    10:00 +2°C° 0 mm 1 mps 710 mmHg 95%
    11:00 +2°C° 0.3 mm 1 mps 710 mmHg 95%
    12:00 +2°C° 0.3 mm 1 mps 709 mmHg 96%
    13:00 +3°C° 0.3 mm 1 mps 709 mmHg 97%
    14:00 +2°C° 0.2 mm 1 mps 709 mmHg 97%
    15:00 +1°C° 0.2 mm 0 mps 709 mmHg 96%
    16:00 +1°C° 0.2 mm 0 mps 709 mmHg 96%
    17:00 +2°C° 0.2 mm 1 mps 709 mmHg 96%
    18:00 +2°C° 0.2 mm 1 mps 710 mmHg 96%
    19:00 +1°C° 0.2 mm 1 mps 710 mmHg 96%
    20:00 +1°C° 0.4 mm 1 mps 710 mmHg 96%
    21:00 +1°C° 0.4 mm 1 mps 710 mmHg 96%
    22:00 +1°C° 0.4 mm 1 mps 710 mmHg 96%
    23:00 +1°C° 0.3 mm 1 mps 710 mmHg 97%

    18 December, Tuesday

    Time Temperature Precipitation Wind Pressure Humidity
    00:00 +1°C° 0.3 mm 1 mps 710 mmHg 97%
    01:00 0°C° 0.3 mm 1 mps 710 mmHg 97%
    02:00 -2°C° 0.3 mm 2 mps 710 mmHg 97%
    03:00 -2°C° 0.3 mm 2 mps 710 mmHg 97%
    04:00 -2°C° 0.3 mm 2 mps 710 mmHg 97%
    05:00 -2°C° 0.9 mm 2 mps 710 mmHg 97%
    06:00 -2°C° 0.9 mm 2 mps 711 mmHg 96%
    07:00 -2°C° 0.9 mm 2 mps 711 mmHg 96%
    08:00 -2°C° 1 mm 2 mps 711 mmHg 96%
    09:00 -2°C° 1 mm 3 mps 712 mmHg 96%
    10:00 -2°C° 1 mm 3 mps 712 mmHg 96%
    11:00 -2°C° 0.8 mm 3 mps 712 mmHg 96%
    12:00 -2°C° 0.8 mm 3 mps 712 mmHg 96%
    13:00 -1°C° 0.8 mm 3 mps 712 mmHg 96%
    14:00 -2°C° 0.4 mm 2 mps 713 mmHg 96%
    15:00 -2°C° 0.4 mm 2 mps 713 mmHg 96%
    16:00 -2°C° 0.4 mm 2 mps 713 mmHg 96%
    17:00 -2°C° 0.2 mm 2 mps 714 mmHg 96%
    18:00 -2°C° 0.2 mm 2 mps 714 mmHg 96%
    19:00 -2°C° 0.2 mm 2 mps 714 mmHg 96%
    20:00 -2°C° 0.1 mm 2 mps 714 mmHg 96%
    21:00 0°C° 0.1 mm 1 mps 714 mmHg 96%
    22:00 0°C° 0.1 mm 1 mps 714 mmHg 96%
    23:00 -1°C° 0 mm 1 mps 714 mmHg 96%

    19 December, Wednesday

    Time Temperature Precipitation Wind Pressure Humidity
    00:00 -1°C° 0 mm 1 mps 714 mmHg 96%
    01:00 -1°C° 0 mm 1 mps 714 mmHg 96%
    02:00 -1°C° 0 mm 1 mps 714 mmHg 96%
    03:00 -2°C° 0 mm 0 mps 714 mmHg 96%
    04:00 -3°C° 0 mm 0 mps 714 mmHg 96%
    05:00 -3°C° 0 mm 0 mps 714 mmHg 95%
    06:00 -3°C° 0 mm 0 mps 714 mmHg 95%
    07:00 -3°C° 0 mm 0 mps 714 mmHg 94%
    08:00 -2°C° 0 mm 0 mps 714 mmHg 94%
    09:00 -1°C° 0 mm 0 mps 714 mmHg 95%
    10:00 0°C° 0 mm 0 mps 714 mmHg 95%
    11:00 +2°C° 0 mm 1 mps 713 mmHg 95%
    12:00 +2°C° 0 mm 1 mps 713 mmHg 95%
    13:00 +2°C° 0 mm 1 mps 712 mmHg 95%
    14:00 +2°C° 0 mm 1 mps 712 mmHg 95%
    15:00 +1°C° 0 mm 1 mps 712 mmHg 96%
    16:00 +1°C° 0 mm 1 mps 712 mmHg 96%
    17:00 +1°C° 0 mm 1 mps 712 mmHg 95%
    18:00 0°C° 0 mm 1 mps 712 mmHg 94%
    19:00 0°C° 0 mm 1 mps 712 mmHg 93%
    20:00 0°C° 0 mm 1 mps 712 mmHg 92%
    21:00 0°C° 0 mm 1 mps 712 mmHg 91%
    22:00 0°C° 0 mm 1 mps 712 mmHg 90%
    23:00 -1°C° 0 mm 1 mps 712 mmHg 90%
    Show more